,,,PA_Meas_PMT16A,,PR_Meas_QMR101_102,,RH_Meas_QMH101,,SR_Meas_QMS101,,TA_Meas_QMH101,,GenWind,,GenWind,
date,time,status,PA,status,PR,status,RH,status,SR,status,TA,status,DirAvg,status,SpdAvg,
2014-03-26, 00:00:05,VALID,1008.94,VALID,0,VALID,104,VALID,0,VALID,24.1812,VALID,95,VALID,0,
2014-03-26, 00:01:05,VALID,1008.95,VALID,0,VALID,104,VALID,0,VALID,24.2025,VALID,105,VALID,0,
2014-03-26, 00:02:05,VALID,1008.93,VALID,0,VALID,104,VALID,0,VALID,24.222,VALID,105,VALID,0,
2014-03-26, 00:03:05,VALID,1008.92,VALID,0,VALID,104,VALID,0,VALID,24.1617,VALID,124,VALID,0,
2014-03-26, 00:04:05,VALID,1008.89,VALID,0,VALID,104,VALID,0,VALID,24.1812,VALID,113,VALID,0,
2014-03-26, 00:05:05,VALID,1008.88,VALID,0,VALID,104,VALID,0,VALID,24.1404,VALID,125,VALID,0,
2014-03-26, 00:06:05,VALID,1008.86,VALID,0,VALID,104,VALID,0,VALID,24.2007,VALID,125,VALID,0,
2014-03-26, 00:07:05,VALID,1008.86,VALID,0,VALID,104,VALID,0,VALID,24.1812,VALID,125,VALID,0,
2014-03-26, 00:08:05,VALID,1008.86,VALID,0,VALID,104,VALID,0,VALID,24.1812,VALID,125,VALID,0,
2014-03-26, 00:09:05,VALID,1008.84,VALID,0,VALID,104,VALID,0,VALID,24.1617,VALID,125,VALID,0,
2014-03-26, 00:10:05,VALID,1008.83,VALID,0,VALID,104,VALID,0,VALID,24.183,VALID,125,VALID,0,
2014-03-26, 00:11:05,VALID,1008.82,VALID,0,VALID,104,VALID,0,VALID,24.1422,VALID,124,VALID,0,
2014-03-26, 00:12:05,VALID,1008.83,VALID,0,VALID,104,VALID,0,VALID,24.1812,VALID,132,VALID,0,
2014-03-26, 00:13:05,VALID,1008.81,VALID,0,VALID,104,VALID,0,VALID,24.1422,VALID,132,VALID,0,
2014-03-26, 00:14:05,VALID,1008.8,VALID,0,VALID,104,VALID,0,VALID,24.1227,VALID,133,VALID,0,
2014-03-26, 00:15:05,VALID,1008.8,VALID,0,VALID,104,VALID,0,VALID,24.1422,VALID,131,VALID,0,
2014-03-26, 00:16:05,VALID,1008.76,VALID,0,VALID,104,VALID,0,VALID,24.1032,VALID,150,VALID,0,
2014-03-26, 00:17:05,VALID,1008.73,VALID,0,VALID,104,VALID,0,VALID,24.1422,VALID,148,VALID,0,
2014-03-26, 00:18:05,VALID,1008.71,VALID,0,VALID,104,VALID,0,VALID,24.1227,VALID,125,VALID,0,
2014-03-26, 00:19:05,VALID,1008.7,VALID,0,VALID,104,VALID,0,VALID,24.1227,VALID,127,VALID,0,
2014-03-26, 00:20:05,VALID,1008.65,VALID,0,VALID,104,VALID,0,VALID,24.144,VALID,129,VALID,0,
2014-03-26, 00:21:05,VALID,1008.64,VALID,0,VALID,104,VALID,0,VALID,24.0837,VALID,119,VALID,0,
2014-03-26, 00:22:05,VALID,1008.6,VALID,0,VALID,104,VALID,0,VALID,24.1245,VALID,135,VALID,0,
2014-03-26, 00:23:05,VALID,1008.61,VALID,0,VALID,104,VALID,0,VALID,24.1227,VALID,135,VALID,0,
2014-03-26, 00:24:05,VALID,1008.58,VALID,0,VALID,104,VALID,0,VALID,24.1032,VALID,124,VALID,0,
2014-03-26, 00:25:05,VALID,1008.56,VALID,0,VALID,104,VALID,0,VALID,24.0837,VALID,123,VALID,0,
2014-03-26, 00:26:05,VALID,1008.53,VALID,0,VALID,104,VALID,0,VALID,24.1032,VALID,123,VALID,0,
2014-03-26, 00:27:05,VALID,1008.53,VALID,0,VALID,104,VALID,0,VALID,24.1032,VALID,122,VALID,0,
2014-03-26, 00:28:05,VALID,1008.49,VALID,0,VALID,104,VALID,0,VALID,24.1032,VALID,122,VALID,0,
2014-03-26, 00:29:05,VALID,1008.47,VALID,0,VALID,104,VALID,0,VALID,24.1032,VALID,122,VALID,0,
2014-03-26, 00:30:05,VALID,1008.43,VALID,0,VALID,104,VALID,0,VALID,24.1032,VALID,122,VALID,0,
2014-03-26, 00:31:05,VALID,1008.39,VALID,0,VALID,104,VALID,0,VALID,24.1032,VALID,122,VALID,0,
2014-03-26, 00:32:05,VALID,1008.36,VALID,0,VALID,104,VALID,0,VALID,24.1032,VALID,122,VALID,0,
2014-03-26, 00:33:05,VALID,1008.33,VALID,0,VALID,104,VALID,0,VALID,24.0819,VALID,122,VALID,0,
2014-03-26, 00:34:05,VALID,1008.3,VALID,0,VALID,104,VALID,0,VALID,24.0837,VALID,122,VALID,0,
2014-03-26, 00:35:05,VALID,1008.29,VALID,0,VALID,104,VALID,0,VALID,24.0837,VALID,122,VALID,0,
2014-03-26, 00:36:05,VALID,1008.27,VALID,0,VALID,104,VALID,0,VALID,24.1032,VALID,122,VALID,0,
2014-03-26, 00:37:05,VALID,1008.25,VALID,0,VALID,104,VALID,0,VALID,24.0837,VALID,122,VALID,0,
2014-03-26, 00:38:05,VALID,1008.22,VALID,0,VALID,104,VALID,0,VALID,24.0837,VALID,122,VALID,0,
2014-03-26, 00:39:05,VALID,1008.24,VALID,0,VALID,104,VALID,0,VALID,24.0837,VALID,122,VALID,0,
2014-03-26, 00:40:05,VALID,1008.21,VALID,0,VALID,104,VALID,0,VALID,24.0643,VALID,122,VALID,0,
2014-03-26, 00:41:05,VALID,1008.18,VALID,0,VALID,104,VALID,0,VALID,24.0643,VALID,122,VALID,0,
2014-03-26, 00:42:05,VALID,1008.17,VALID,0,VALID,104,VALID,0,VALID,24.0643,VALID,122,VALID,0,
2014-03-26, 00:43:05,VALID,1008.15,VALID,0,VALID,104,VALID,0,VALID,24.0837,VALID,122,VALID,0,
2014-03-26, 00:44:05,VALID,1008.12,VALID,0,VALID,104,VALID,0,VALID,24.0643,VALID,122,VALID,0,
2014-03-26, 00:45:05,VALID,1008.13,VALID,0,VALID,104,VALID,0,VALID,24.0448,VALID,122,VALID,0,
2014-03-26, 00:46:05,VALID,1008.11,VALID,0,VALID,104,VALID,0,VALID,24.0643,VALID,122,VALID,0,
2014-03-26, 00:47:05,VALID,1008.12,VALID,0,VALID,104,VALID,0,VALID,24.0643,VALID,122,VALID,0,
2014-03-26, 00:48:05,VALID,1008.1,VALID,0,VALID,104,VALID,0,VALID,24.0448,VALID,122,VALID,0,
2014-03-26, 00:49:05,VALID,1008.11,VALID,0,VALID,104,VALID,0,VALID,24.0253,VALID,101,VALID,0,
2014-03-26, 00:50:05,VALID,1008.1,VALID,0,VALID,104,VALID,0,VALID,24.0235,VALID,101,VALID,0,
2014-03-26, 00:51:05,VALID,1008.07,VALID,0,VALID,104,VALID,0,VALID,24.0253,VALID,100,VALID,0,
2014-03-26, 00:52:05,VALID,1008.07,VALID,0,VALID,104,VALID,0,VALID,24.0253,VALID,91,VALID,0,
2014-03-26, 00:53:05,VALID,1008.08,VALID,0,VALID,104,VALID,0,VALID,24.0448,VALID,91,VALID,0,
2014-03-26, 00:54:05,VALID,1008.05,VALID,0,VALID,104,VALID,0,VALID,24.0643,VALID,91,VALID,0,
2014-03-26, 00:55:05,VALID,1008.04,VALID,0,VALID,104,VALID,0,VALID,24.0448,VALID,91,VALID,0,
2014-03-26, 00:56:05,VALID,1008.04,VALID,0,VALID,104,VALID,0,VALID,24.0448,VALID,91,VALID,0,
2014-03-26, 00:57:05,VALID,1008.03,VALID,0,VALID,104,VALID,0,VALID,24.0448,VALID,91,VALID,0,
2014-03-26, 00:58:05,VALID,1008.02,VALID,0,VALID,104,VALID,0,VALID,24.0253,VALID,91,VALID,0,
2014-03-26, 00:59:05,VALID,1008.04,VALID,0,VALID,104,VALID,0,VALID,24.0253,VALID,91,VALID,0,
2014-03-26, 01:00:05,VALID,1008,VALID,0,VALID,104,VALID,0,VALID,24.0058,VALID,91,VALID,0,
2014-03-26, 01:01:05,VALID,1008,VALID,0,VALID,104,VALID,0,VALID,24.0058,VALID,91,VALID,0,
2014-03-26, 01:02:05,VALID,1008,VALID,0,VALID,104,VALID,0,VALID,24.0058,VALID,91,VALID,0,
2014-03-26, 01:03:05,VALID,1007.97,VALID,0,VALID,104,VALID,0,VALID,24.0253,VALID,91,VALID,0,
2014-03-26, 01:04:05,VALID,1007.97,VALID,0,VALID,104,VALID,0,VALID,24.0058,VALID,91,VALID,0,
2014-03-26, 01:05:05,VALID,1007.95,VALID,0,VALID,104,VALID,0,VALID,24.0058,VALID,91,VALID,0,
2014-03-26, 01:06:05,VALID,1007.96,VALID,0,VALID,104,VALID,0,VALID,24.0058,VALID,91,VALID,0,
2014-03-26, 01:07:05,VALID,1007.96,VALID,0,VALID,104,VALID,0,VALID,24.0058,VALID,91,VALID,0,
2014-03-26, 01:08:05,VALID,1007.96,VALID,0,VALID,104,VALID,0,VALID,24.0058,VALID,91,VALID,0,
2014-03-26, 01:09:05,VALID,1007.93,VALID,0,VALID,104,VALID,0,VALID,24.0058,VALID,91,VALID,0,
2014-03-26, 01:10:05,VALID,1007.95,VALID,0,VALID,104,VALID,0,VALID,24.0058,VALID,91,VALID,0,
2014-03-26, 01:11:05,VALID,1007.91,VALID,0,VALID,104,VALID,0,VALID,24.0058,VALID,91,VALID,0,
2014-03-26, 01:12:05,VALID,1007.92,VALID,0,VALID,104,VALID,0,VALID,24.0253,VALID,91,VALID,0,
2014-03-26, 01:13:05,VALID,1007.93,VALID,0,VALID,104,VALID,0,VALID,24.0448,VALID,91,VALID,0,
2014-03-26, 01:14:05,VALID,1007.92,VALID,0,VALID,104,VALID,0,VALID,24.0448,VALID,91,VALID,0,
2014-03-26, 01:15:05,VALID,1007.93,VALID,0,VALID,104,VALID,0,VALID,24.0235,VALID,91,VALID,0,
2014-03-26, 01:16:05,VALID,1007.94,VALID,0,VALID,104,VALID,0,VALID,24.0448,VALID,91,VALID,0,
2014-03-26, 01:17:05,VALID,1007.96,VALID,0,VALID,104,VALID,0,VALID,24.0643,VALID,91,VALID,0,
2014-03-26, 01:18:05,VALID,1007.96,VALID,0,VALID,104,VALID,0,VALID,24.0448,VALID,91,VALID,0,
2014-03-26, 01:19:05,VALID,1007.95,VALID,0,VALID,104,VALID,0,VALID,24.0253,VALID,91,VALID,0,
2014-03-26, 01:20:05,VALID,1007.92,VALID,0,VALID,104,VALID,0,VALID,24.0058,VALID,91,VALID,0,
2014-03-26, 01:21:05,VALID,1007.88,VALID,0,VALID,104,VALID,0,VALID,24.0058,VALID,91,VALID,0,
2014-03-26, 01:22:05,VALID,1007.89,VALID,0,VALID,104,VALID,0,VALID,23.9845,VALID,91,VALID,0,
2014-03-26, 01:23:05,VALID,1007.86,VALID,0,VALID,104,VALID,0,VALID,24.0058,VALID,91,VALID,0,
2014-03-26, 01:24:05,VALID,1007.87,VALID,0,VALID,104,VALID,0,VALID,24.0058,VALID,91,VALID,0,
2014-03-26, 01:25:05,VALID,1007.83,VALID,0,VALID,104,VALID,0,VALID,24.0058,VALID,91,VALID,0,
2014-03-26, 01:26:05,VALID,1007.84,VALID,0,VALID,104,VALID,0,VALID,24.0253,VALID,91,VALID,0,
2014-03-26, 01:27:05,VALID,1007.85,VALID,0,VALID,104,VALID,0,VALID,24.0253,VALID,91,VALID,0,
2014-03-26, 01:28:05,VALID,1007.85,VALID,0,VALID,104,VALID,0,VALID,24.0448,VALID,91,VALID,0,
2014-03-26, 01:29:05,VALID,1007.86,VALID,0,VALID,104,VALID,0,VALID,24.0448,VALID,91,VALID,0,
2014-03-26, 01:30:05,VALID,1007.88,VALID,0,VALID,104,VALID,0,VALID,24.0643,VALID,91,VALID,0,
2014-03-26, 01:31:05,VALID,1007.87,VALID,0,VALID,104,VALID,0,VALID,24.0448,VALID,91,VALID,0,
2014-03-26, 01:32:05,VALID,1007.86,VALID,0,VALID,104,VALID,0,VALID,24.0058,VALID,91,VALID,0,
2014-03-26, 01:33:05,VALID,1007.89,VALID,0,VALID,104,VALID,0,VALID,23.9668,VALID,91,VALID,0,
2014-03-26, 01:34:05,VALID,1007.89,VALID,0,VALID,104,VALID,0,VALID,23.9473,VALID,91,VALID,0,
2014-03-26, 01:35:05,VALID,1007.87,VALID,0,VALID,104,VALID,0,VALID,23.9473,VALID,91,VALID,0,
2014-03-26, 01:36:05,VALID,1007.87,VALID,0,VALID,104,VALID,0,VALID,24.0058,VALID,91,VALID,0,
2014-03-26, 01:37:05,VALID,1007.84,VALID,0,VALID,104,VALID,0,VALID,23.9863,VALID,91,VALID,0,
2014-03-26, 01:38:05,VALID,1007.84,VALID,0,VALID,104,VALID,0,VALID,24.0058,VALID,91,VALID,0,
2014-03-26, 01:39:04,VALID,1007.84,VALID,0,VALID,104,VALID,0,VALID,23.9845,VALID,91,VALID,0,
2014-03-26, 01:40:04,VALID,1007.84,VALID,0,VALID,104,VALID,0,VALID,23.9863,VALID,91,VALID,0,
2014-03-26, 01:41:04,VALID,1007.8,VALID,0,VALID,104,VALID,0,VALID,23.965,VALID,91,VALID,0,
2014-03-26, 01:42:04,VALID,1007.81,VALID,0,VALID,104,VALID,0,VALID,23.9455,VALID,91,VALID,0,
2014-03-26, 01:43:04,VALID,1007.82,VALID,0,VALID,104,VALID,0,VALID,23.9455,VALID,91,VALID,0,
2014-03-26, 01:44:04,VALID,1007.83,VALID,0,VALID,104,VALID,0,VALID,23.9668,VALID,91,VALID,0,
2014-03-26, 01:45:04,VALID,1007.81,VALID,0,VALID,104,VALID,0,VALID,23.9668,VALID,91,VALID,0,
2014-03-26, 01:46:04,VALID,1007.82,VALID,0,VALID,104,VALID,0,VALID,23.926,VALID,91,VALID,0,
2014-03-26, 01:47:04,VALID,1007.85,VALID,0,VALID,104,VALID,0,VALID,23.9473,VALID,91,VALID,0,
2014-03-26, 01:48:04,VALID,1007.86,VALID,0,VALID,104,VALID,0,VALID,23.9455,VALID,91,VALID,0,
2014-03-26, 01:49:04,VALID,1007.85,VALID,0,VALID,104,VALID,0,VALID,23.9668,VALID,91,VALID,0,
2014-03-26, 01:50:04,VALID,1007.86,VALID,0,VALID,104,VALID,0,VALID,23.9668,VALID,91,VALID,0,
2014-03-26, 01:51:04,VALID,1007.88,VALID,0,VALID,104,VALID,0,VALID,23.9668,VALID,91,VALID,0,
2014-03-26, 01:52:04,VALID,1007.87,VALID,0,VALID,104,VALID,0,VALID,23.9455,VALID,91,VALID,0,
2014-03-26, 01:53:04,VALID,1007.88,VALID,0,VALID,104,VALID,0,VALID,23.9668,VALID,90,VALID,0,
2014-03-26, 01:54:04,VALID,1007.84,VALID,0,VALID,104,VALID,0,VALID,23.9863,VALID,91,VALID,0,
2014-03-26, 01:55:04,VALID,1007.86,VALID,0,VALID,104,VALID,0,VALID,23.9863,VALID,91,VALID,0,
2014-03-26, 01:56:04,VALID,1007.84,VALID,0,VALID,104,VALID,0,VALID,23.9668,VALID,91,VALID,0,
2014-03-26, 01:57:04,VALID,1007.85,VALID,0,VALID,104,VALID,0,VALID,23.9668,VALID,91,VALID,0,
2014-03-26, 01:58:04,VALID,1007.84,VALID,0,VALID,104,VALID,0,VALID,23.9668,VALID,91,VALID,0,
2014-03-26, 01:59:04,VALID,1007.85,VALID,0,VALID,104,VALID,0,VALID,23.9863,VALID,91,VALID,0,
2014-03-26, 02:00:04,VALID,1007.83,VALID,0,VALID,104,VALID,0,VALID,23.9863,VALID,91,VALID,0,
2014-03-26, 02:01:04,VALID,1007.85,VALID,0,VALID,104,VALID,0,VALID,23.9863,VALID,91,VALID,0,
2014-03-26, 02:02:04,VALID,1007.86,VALID,0,VALID,104,VALID,0,VALID,23.9455,VALID,91,VALID,0,
2014-03-26, 02:03:04,VALID,1007.86,VALID,0,VALID,104,VALID,0,VALID,23.9668,VALID,91,VALID,0,
2014-03-26, 02:04:04,VALID,1007.84,VALID,0,VALID,104,VALID,0,VALID,23.9668,VALID,91,VALID,0,
2014-03-26, 02:05:04,VALID,1007.87,VALID,0,VALID,104,VALID,0,VALID,23.9668,VALID,91,VALID,0,
2014-03-26, 02:06:04,VALID,1007.89,VALID,0,VALID,104,VALID,0,VALID,23.9863,VALID,91,VALID,0,
2014-03-26, 02:07:04,VALID,1007.93,VALID,0,VALID,104,VALID,0,VALID,23.9668,VALID,91,VALID,0,
2014-03-26, 02:08:04,VALID,1007.94,VALID,0,VALID,104,VALID,0,VALID,23.9668,VALID,91,VALID,0,
2014-03-26, 02:09:04,VALID,1007.95,VALID,0,VALID,104,VALID,0,VALID,23.9668,VALID,91,VALID,0,
2014-03-26, 02:10:04,VALID,1007.99,VALID,0,VALID,104,VALID,0,VALID,23.9668,VALID,91,VALID,0,
2014-03-26, 02:11:04,VALID,1007.97,VALID,0,VALID,104,VALID,0,VALID,23.9668,VALID,91,VALID,0,
2014-03-26, 02:12:04,VALID,1007.97,VALID,0,VALID,104,VALID,0,VALID,23.9668,VALID,91,VALID,0,
2014-03-26, 02:13:04,VALID,1007.96,VALID,0,VALID,104,VALID,0,VALID,23.926,VALID,91,VALID,0,
2014-03-26, 02:14:04,VALID,1007.95,VALID,0,VALID,104,VALID,0,VALID,23.926,VALID,91,VALID,0,
2014-03-26, 02:15:04,VALID,1007.95,VALID,0,VALID,104,VALID,0,VALID,23.9278,VALID,91,VALID,0,
2014-03-26, 02:16:04,VALID,1007.93,VALID,0,VALID,104,VALID,0,VALID,23.9065,VALID,91,VALID,0,
2014-03-26, 02:17:04,VALID,1007.97,VALID,0,VALID,104,VALID,0,VALID,23.9278,VALID,91,VALID,0,
2014-03-26, 02:18:04,VALID,1007.92,VALID,0,VALID,104,VALID,0,VALID,23.9278,VALID,91,VALID,0,
2014-03-26, 02:19:04,VALID,1007.92,VALID,0,VALID,104,VALID,0,VALID,23.8871,VALID,91,VALID,0,
2014-03-26, 02:20:04,VALID,1007.94,VALID,0,VALID,104,VALID,0,VALID,23.9278,VALID,90,VALID,0,
2014-03-26, 02:21:04,VALID,1007.89,VALID,0,VALID,104,VALID,0,VALID,23.9473,VALID,91,VALID,0,
2014-03-26, 02:22:04,VALID,1007.88,VALID,0,VALID,104,VALID,0,VALID,23.9668,VALID,91,VALID,0,
2014-03-26, 02:23:04,VALID,1007.84,VALID,0,VALID,104,VALID,0,VALID,23.9668,VALID,91,VALID,0,
2014-03-26, 02:24:04,VALID,1007.83,VALID,0,VALID,104,VALID,0,VALID,23.9455,VALID,91,VALID,0,
2014-03-26, 02:25:04,VALID,1007.82,VALID,0,VALID,104,VALID,0,VALID,23.9473,VALID,91,VALID,0,
2014-03-26, 02:26:04,VALID,1007.8,VALID,0,VALID,104,VALID,0,VALID,23.9084,VALID,90,VALID,0,
2014-03-26, 02:27:04,VALID,1007.78,VALID,0,VALID,104,VALID,0,VALID,23.9084,VALID,91,VALID,0,
2014-03-26, 02:28:04,VALID,1007.77,VALID,0,VALID,104,VALID,0,VALID,23.9084,VALID,91,VALID,0,
2014-03-26, 02:29:04,VALID,1007.78,VALID,0,VALID,104,VALID,0,VALID,23.8676,VALID,91,VALID,0,
2014-03-26, 02:30:04,VALID,1007.77,VALID,0,VALID,104,VALID,0,VALID,23.8889,VALID,90,VALID,0,
2014-03-26, 02:31:04,VALID,1007.77,VALID,0,VALID,104,VALID,0,VALID,23.8889,VALID,91,VALID,0,
2014-03-26, 02:32:04,VALID,1007.78,VALID,0,VALID,104,VALID,0,VALID,23.8694,VALID,91,VALID,0,
2014-03-26, 02:33:04,VALID,1007.79,VALID,0,VALID,104,VALID,0,VALID,23.8286,VALID,91,VALID,0,
2014-03-26, 02:34:04,VALID,1007.77,VALID,0,VALID,104,VALID,0,VALID,23.8481,VALID,91,VALID,0,
2014-03-26, 02:35:04,VALID,1007.73,VALID,0,VALID,104,VALID,0,VALID,23.8499,VALID,91,VALID,0,
2014-03-26, 02:36:04,VALID,1007.73,VALID,0,VALID,104,VALID,0,VALID,23.8499,VALID,91,VALID,0,
2014-03-26, 02:37:04,VALID,1007.73,VALID,0,VALID,104,VALID,0,VALID,23.8286,VALID,91,VALID,0,
2014-03-26, 02:38:04,VALID,1007.72,VALID,0,VALID,104,VALID,0,VALID,23.8304,VALID,90,VALID,0,
2014-03-26, 02:39:04,VALID,1007.71,VALID,0,VALID,104,VALID,0.112112,VALID,23.8304,VALID,91,VALID,0,
2014-03-26, 02:40:04,VALID,1007.68,VALID,0,VALID,104,VALID,0,VALID,23.8304,VALID,91,VALID,0,
2014-03-26, 02:41:04,VALID,1007.66,VALID,0,VALID,104,VALID,0,VALID,23.8304,VALID,91,VALID,0,
2014-03-26, 02:42:04,VALID,1007.65,VALID,0,VALID,104,VALID,0,VALID,23.8304,VALID,91,VALID,0,
2014-03-26, 02:43:04,VALID,1007.65,VALID,0,VALID,104,VALID,0,VALID,23.8109,VALID,91,VALID,0,
2014-03-26, 02:44:04,VALID,1007.63,VALID,0,VALID,104,VALID,0.112112,VALID,23.8091,VALID,91,VALID,0,
2014-03-26, 02:45:04,VALID,1007.6,VALID,0,VALID,104,VALID,0,VALID,23.8304,VALID,91,VALID,0,
2014-03-26, 02:46:04,VALID,1007.6,VALID,0,VALID,104,VALID,0,VALID,23.8109,VALID,91,VALID,0,
2014-03-26, 02:47:04,VALID,1007.57,VALID,0,VALID,104,VALID,0,VALID,23.8109,VALID,91,VALID,0,
2014-03-26, 02:48:04,VALID,1007.6,VALID,0,VALID,104,VALID,0,VALID,23.8109,VALID,91,VALID,0,
2014-03-26, 02:49:04,VALID,1007.56,VALID,0,VALID,104,VALID,0,VALID,23.8304,VALID,91,VALID,0,
2014-03-26, 02:50:04,VALID,1007.53,VALID,0,VALID,104,VALID,0,VALID,23.8304,VALID,91,VALID,0,
2014-03-26, 02:51:04,VALID,1007.53,VALID,0,VALID,104,VALID,0,VALID,23.8499,VALID,91,VALID,0,
2014-03-26, 02:52:04,VALID,1007.55,VALID,0,VALID,104,VALID,0,VALID,23.8499,VALID,91,VALID,0,
2014-03-26, 02:53:04,VALID,1007.58,VALID,0,VALID,104,VALID,0,VALID,23.8304,VALID,91,VALID,0,
2014-03-26, 02:54:04,VALID,1007.57,VALID,0,VALID,104,VALID,0,VALID,23.8091,VALID,91,VALID,0,
2014-03-26, 02:55:04,VALID,1007.58,VALID,0,VALID,104,VALID,0,VALID,23.8304,VALID,91,VALID,0,
2014-03-26, 02:56:04,VALID,1007.56,VALID,0,VALID,104,VALID,0,VALID,23.8304,VALID,91,VALID,0,
2014-03-26, 02:57:04,VALID,1007.58,VALID,0,VALID,104,VALID,0,VALID,23.7896,VALID,91,VALID,0,
2014-03-26, 02:58:04,VALID,1007.57,VALID,0,VALID,104,VALID,0,VALID,23.8109,VALID,91,VALID,0,
2014-03-26, 02:59:04,VALID,1007.59,VALID,0,VALID,104,VALID,0,VALID,23.7896,VALID,91,VALID,0,
2014-03-26, 03:00:04,VALID,1007.57,VALID,0,VALID,104,VALID,0.112112,VALID,23.7896,VALID,91,VALID,0,
2014-03-26, 03:01:04,VALID,1007.56,VALID,0,VALID,104,VALID,0,VALID,23.8109,VALID,91,VALID,0,
2014-03-26, 03:02:04,VALID,1007.58,VALID,0,VALID,104,VALID,0,VALID,23.8109,VALID,91,VALID,0,
2014-03-26, 03:03:04,VALID,1007.56,VALID,0,VALID,104,VALID,0,VALID,23.7896,VALID,91,VALID,0,
2014-03-26, 03:04:04,VALID,1007.52,VALID,0,VALID,104,VALID,0,VALID,23.8109,VALID,91,VALID,0,
2014-03-26, 03:05:04,VALID,1007.52,VALID,0,VALID,104,VALID,0,VALID,23.7914,VALID,91,VALID,0,
2014-03-26, 03:06:04,VALID,1007.5,VALID,0,VALID,104,VALID,0,VALID,23.7701,VALID,91,VALID,0,
2014-03-26, 03:07:04,VALID,1007.5,VALID,0,VALID,104,VALID,0.112112,VALID,23.7701,VALID,91,VALID,0,
2014-03-26, 03:08:04,VALID,1007.48,VALID,0,VALID,104,VALID,0.112112,VALID,23.772,VALID,91,VALID,0,
2014-03-26, 03:09:04,VALID,1007.5,VALID,0,VALID,104,VALID,0.112112,VALID,23.7701,VALID,91,VALID,0,
2014-03-26, 03:10:04,VALID,1007.5,VALID,0,VALID,104,VALID,0.112112,VALID,23.772,VALID,91,VALID,0,
2014-03-26, 03:11:04,VALID,1007.52,VALID,0,VALID,104,VALID,0,VALID,23.7914,VALID,91,VALID,0,
2014-03-26, 03:12:04,VALID,1007.51,VALID,0,VALID,104,VALID,0,VALID,23.772,VALID,91,VALID,0,
2014-03-26, 03:13:04,VALID,1007.52,VALID,0,VALID,104,VALID,0.112112,VALID,23.7507,VALID,91,VALID,0,
2014-03-26, 03:14:04,VALID,1007.52,VALID,0,VALID,104,VALID,0,VALID,23.772,VALID,91,VALID,0,
2014-03-26, 03:15:04,VALID,1007.54,VALID,0,VALID,104,VALID,0,VALID,23.7525,VALID,91,VALID,0,
2014-03-26, 03:16:04,VALID,1007.55,VALID,0,VALID,104,VALID,0,VALID,23.7525,VALID,91,VALID,0,
2014-03-26, 03:17:04,VALID,1007.54,VALID,0,VALID,104,VALID,0,VALID,23.7525,VALID,91,VALID,0,
2014-03-26, 03:18:04,VALID,1007.55,VALID,0,VALID,104,VALID,0,VALID,23.733,VALID,91,VALID,0,
2014-03-26, 03:19:04,VALID,1007.57,VALID,0,VALID,104,VALID,0.112112,VALID,23.7117,VALID,91,VALID,0,
2014-03-26, 03:20:04,VALID,1007.58,VALID,0,VALID,104,VALID,0,VALID,23.7135,VALID,91,VALID,0,
2014-03-26, 03:21:04,VALID,1007.6,VALID,0,VALID,104,VALID,0,VALID,23.694,VALID,91,VALID,0,
2014-03-26, 03:22:04,VALID,1007.6,VALID,0,VALID,104,VALID,0,VALID,23.694,VALID,91,VALID,0,
2014-03-26, 03:23:04,VALID,1007.64,VALID,0,VALID,104,VALID,0,VALID,23.694,VALID,91,VALID,0,
2014-03-26, 03:24:04,VALID,1007.66,VALID,0,VALID,104,VALID,0,VALID,23.7135,VALID,91,VALID,0,
2014-03-26, 03:25:04,VALID,1007.68,VALID,0,VALID,104,VALID,0,VALID,23.7135,VALID,91,VALID,0,
2014-03-26, 03:26:04,VALID,1007.68,VALID,0,VALID,104,VALID,0,VALID,23.694,VALID,91,VALID,0,
2014-03-26, 03:27:04,VALID,1007.72,VALID,0,VALID,104,VALID,0,VALID,23.694,VALID,91,VALID,0,
2014-03-26, 03:28:04,VALID,1007.74,VALID,0,VALID,104,VALID,0,VALID,23.694,VALID,91,VALID,0,
2014-03-26, 03:29:04,VALID,1007.75,VALID,0,VALID,104,VALID,0,VALID,23.694,VALID,91,VALID,0,
2014-03-26, 03:30:04,VALID,1007.76,VALID,0,VALID,104,VALID,0.112112,VALID,23.6922,VALID,91,VALID,0,
2014-03-26, 03:31:04,VALID,1007.8,VALID,0,VALID,104,VALID,0,VALID,23.733,VALID,90,VALID,0,
2014-03-26, 03:32:04,VALID,1007.79,VALID,0,VALID,104,VALID,0.112112,VALID,23.6922,VALID,90,VALID,0,
2014-03-26, 03:33:04,VALID,1007.81,VALID,0,VALID,104,VALID,0,VALID,23.7135,VALID,91,VALID,0,
2014-03-26, 03:34:04,VALID,1007.79,VALID,0,VALID,104,VALID,0,VALID,23.7135,VALID,91,VALID,0,
2014-03-26, 03:35:04,VALID,1007.84,VALID,0,VALID,104,VALID,0,VALID,23.7135,VALID,90,VALID,0,
2014-03-26, 03:36:04,VALID,1007.82,VALID,0,VALID,104,VALID,0,VALID,23.6727,VALID,90,VALID,0,
2014-03-26, 03:37:04,VALID,1007.9,VALID,0,VALID,104,VALID,0,VALID,23.694,VALID,91,VALID,0,
2014-03-26, 03:38:04,VALID,1007.91,VALID,0,VALID,104,VALID,0,VALID,23.6745,VALID,90,VALID,0,
2014-03-26, 03:39:04,VALID,1007.92,VALID,0,VALID,104,VALID,0,VALID,23.6745,VALID,91,VALID,0,
2014-03-26, 03:40:04,VALID,1007.94,VALID,0,VALID,104,VALID,0,VALID,23.6745,VALID,89,VALID,0,
2014-03-26, 03:41:04,VALID,1007.91,VALID,0,VALID,104,VALID,0,VALID,23.655,VALID,91,VALID,0,
2014-03-26, 03:42:04,VALID,1007.94,VALID,0,VALID,104,VALID,0,VALID,23.655,VALID,90,VALID,0,
2014-03-26, 03:43:04,VALID,1007.89,VALID,0,VALID,104,VALID,0,VALID,23.6356,VALID,91,VALID,0,
2014-03-26, 03:44:04,VALID,1007.89,VALID,0,VALID,104,VALID,0,VALID,23.6356,VALID,91,VALID,0,
2014-03-26, 03:45:04,VALID,1007.91,VALID,0,VALID,104,VALID,0,VALID,23.655,VALID,92,VALID,0,
2014-03-26, 03:46:04,VALID,1007.89,VALID,0,VALID,104,VALID,0,VALID,23.655,VALID,90,VALID,0,
2014-03-26, 03:47:04,VALID,1007.91,VALID,0,VALID,104,VALID,0,VALID,23.6356,VALID,90,VALID,0,
2014-03-26, 03:48:04,VALID,1007.93,VALID,0,VALID,104,VALID,0,VALID,23.6356,VALID,91,VALID,0,
2014-03-26, 03:49:04,VALID,1007.91,VALID,0,VALID,104,VALID,0,VALID,23.6161,VALID,91,VALID,0,
2014-03-26, 03:50:04,VALID,1007.9,VALID,0,VALID,104,VALID,0,VALID,23.6161,VALID,90,VALID,0,
2014-03-26, 03:51:04,VALID,1007.91,VALID,0,VALID,104,VALID,0,VALID,23.5966,VALID,90,VALID,0,
2014-03-26, 03:52:04,VALID,1007.89,VALID,0,VALID,104,VALID,0,VALID,23.5966,VALID,91,VALID,0,
2014-03-26, 03:53:04,VALID,1007.86,VALID,0,VALID,104,VALID,0,VALID,23.5753,VALID,91,VALID,0,
2014-03-26, 03:54:04,VALID,1007.86,VALID,0,VALID,104,VALID,0.112112,VALID,23.5753,VALID,90,VALID,0,
2014-03-26, 03:55:04,VALID,1007.87,VALID,0,VALID,104,VALID,0,VALID,23.5966,VALID,90,VALID,0,
2014-03-26, 03:56:04,VALID,1007.88,VALID,0,VALID,104,VALID,0,VALID,23.5966,VALID,90,VALID,0,
2014-03-26, 03:57:04,VALID,1007.87,VALID,0,VALID,104,VALID,0,VALID,23.5753,VALID,91,VALID,0,
2014-03-26, 03:58:04,VALID,1007.88,VALID,0,VALID,104,VALID,0,VALID,23.5966,VALID,91,VALID,0,
2014-03-26, 03:59:04,VALID,1007.91,VALID,0,VALID,104,VALID,0,VALID,23.5753,VALID,90,VALID,0,
2014-03-26, 04:00:04,VALID,1007.93,VALID,0,VALID,104,VALID,0.112112,VALID,23.5771,VALID,91,VALID,0,
2014-03-26, 04:01:04,VALID,1007.92,VALID,0,VALID,104,VALID,0,VALID,23.5771,VALID,90,VALID,0,
2014-03-26, 04:02:04,VALID,1007.93,VALID,0,VALID,104,VALID,0,VALID,23.5966,VALID,91,VALID,0,
2014-03-26, 04:03:04,VALID,1007.93,VALID,0,VALID,104,VALID,0,VALID,23.5753,VALID,91,VALID,0,
2014-03-26, 04:04:04,VALID,1007.94,VALID,0,VALID,104,VALID,0,VALID,23.5771,VALID,91,VALID,0,
2014-03-26, 04:05:04,VALID,1007.95,VALID,0,VALID,104,VALID,0,VALID,23.5771,VALID,91,VALID,0,
2014-03-26, 04:06:04,VALID,1007.94,VALID,0,VALID,104,VALID,0,VALID,23.5363,VALID,91,VALID,0,
2014-03-26, 04:07:04,VALID,1007.93,VALID,0,VALID,104,VALID,0,VALID,23.5576,VALID,90,VALID,0,
2014-03-26, 04:08:04,VALID,1007.94,VALID,0,VALID,104,VALID,0,VALID,23.5558,VALID,91,VALID,0,
2014-03-26, 04:09:04,VALID,1007.93,VALID,0,VALID,104,VALID,0,VALID,23.5576,VALID,90,VALID,0,
2014-03-26, 04:10:04,VALID,1007.92,VALID,0,VALID,104,VALID,0,VALID,23.5576,VALID,92,VALID,0,
2014-03-26, 04:11:04,VALID,1007.91,VALID,0,VALID,104,VALID,0,VALID,23.5771,VALID,90,VALID,0,